| แชร์ | หัวข้อ | โพสต์โดย | อ่าน | ตอบ | โพสต์ล่าสุด |
|---|---|---|---|---|---|
| Momay | 1,196 | 5 | 18/01/2014 02:37:18 | ||
| Me4tspin | 991 | 2 | 18/01/2014 02:25:22 | ||
| NUTTANICK | 1,057 | 4 | 18/01/2014 01:01:20 | ||
| JAS-39 | 823 | 1 | 17/01/2014 23:22:32 | ||
| nongaloha | 740 | 1 | 17/01/2014 23:20:37 | ||
| porparty | 873 | 5 | 17/01/2014 22:24:42 | ||
| สมพร | 746 | 2 | 17/01/2014 22:24:35 | ||
| มือใหม่หัวใจว้า... | 995 | 4 | 17/01/2014 22:11:43 | ||
| taskmasterpp | 740 | 2 | 17/01/2014 19:25:25 | ||
| gamonoi | 778 | 2 | 17/01/2014 17:57:35 | ||
| satinn | 1,474 | 5 | 17/01/2014 17:34:27 | ||
| greeny057 | 893 | 1 | 17/01/2014 17:03:14 | ||
| soryimlate | 1,018 | 11 | 17/01/2014 16:00:42 | ||
| zlakeaw | 1,023 | 1 | 17/01/2014 15:17:48 | ||
| toot | 701 | 2 | 17/01/2014 15:14:39 | ||
| BFMV3003 | 1,257 | 22 | 17/01/2014 13:16:27 | ||
| nongaloha | 867 | 2 | 17/01/2014 12:32:40 | ||
| Parinnut | 1,498 | 3 | 17/01/2014 09:24:46 | ||
| Progreso | 3,756 | 6 | 17/01/2014 08:33:00 | ||
| hippoeg6 | 1,148 | 4 | 17/01/2014 02:47:27 | ||
| heavyhex | 1,643 | 19 | 17/01/2014 02:39:13 | ||
| wattikorn | 941 | 5 | 17/01/2014 01:57:31 | ||
| champ2526 | 1,136 | 5 | 17/01/2014 00:12:00 | ||
| Bom_baysinton | 1,314 | 5 | 16/01/2014 23:19:47 | ||
| flook16comza | 1,145 | 4 | 16/01/2014 22:55:49 | ||
| panda14 | 1,017 | 7 | 16/01/2014 22:25:17 | ||
| mop01zeez | 782 | 3 | 16/01/2014 22:23:33 | ||
| sugarmaple | 1,329 | 6 | 16/01/2014 22:12:40 | ||
| Russianoptic | 851 | 3 | 16/01/2014 19:56:05 | ||
| punfree | 2,963 | 19 | 16/01/2014 19:11:29 | ||
| sommeawaya | 805 | 0 | 16/01/2014 17:28:56 | ||
| exxy112112 | 710 | 2 | 16/01/2014 17:19:29 | ||
| Nickkk | 782 | 2 | 16/01/2014 17:05:17 | ||
| taskmasterpp | 763 | 1 | 16/01/2014 16:18:45 | ||
| dew22799 | 1,408 | 13 | 16/01/2014 16:05:45 | ||
| Channpat | 1,431 | 7 | 16/01/2014 15:50:53 | ||
| toonmanga | 1,077 | 2 | 16/01/2014 14:42:03 | ||
| templeboy92 | 1,728 | 30 | 16/01/2014 14:19:17 | ||
| สมพงษ์ | 8,768 | 14 | 16/01/2014 13:44:07 | ||
| nexus | 942 | 3 | 16/01/2014 12:08:38 | ||
| หวัดดีชาวร๊อก | 916 | 4 | 16/01/2014 11:51:01 | ||
| sanpasilp | 1,020 | 2 | 16/01/2014 11:33:15 | ||
| headfi | 812 | 1 | 16/01/2014 11:23:54 | ||
| sukonthamarn | 833 | 1 | 16/01/2014 11:22:37 | ||
| codenameexe | 1,017 | 6 | 16/01/2014 11:16:51 | ||
| Bad Cat Company | 872 | 1 | 16/01/2014 11:11:30 | ||
| NookTurboza | 1,032 | 1 | 16/01/2014 10:51:23 | ||
| วาเลนไทน์ | 1,275 | 24 | 16/01/2014 02:50:28 | ||
| pim1595 | 5,845 | 11 | 16/01/2014 01:57:32 | ||
| mop01zeez | 1,166 | 8 | 16/01/2014 01:44:42 |
| โพสที่แจ้งลบ | แจ้งโดย | เหตุที่แจ้ง | สถานะ |
|---|
